Location: Splawn
(30.9202°N, 96.9858°W)
Time: 05:58:53
(UTC+00:00)

N. Korean satellite - Visible Passes

Search period start: 23 January 2020 00:00
Search period end: 02 February 2020 00:00
Orbit: 454 x 507 km, 97.2° (Epoch: 22 January)

Date Brightness Start Highest point End Pass type
(mag) Time Alt. Az. Time Alt. Az. Time Alt. Az.
23 Jan 9.6 11:24:19 10° NE 11:26:46 17° E 11:29:13 10° SE visible
23 Jan 7.9 12:57:24 10° NNW 13:00:00 19° WNW 13:02:38 10° WSW visible
24 Jan 6.9 12:31:14 10° N 12:34:39 43° WNW 12:38:06 10° SSW visible
25 Jan 10.1 00:36:47 10° WSW 00:38:00 12° W 00:39:14 10° WNW visible
25 Jan 6.7 12:05:36 10° NNE 12:09:12 74° ESE 12:12:50 10° S visible
26 Jan 8.6 11:40:29 10° NE 11:43:42 30° E 11:46:55 10° SSE visible
27 Jan 9.9 11:16:15 10° ENE 11:18:07 13° E 11:19:59 10° SE visible
27 Jan 7.6 12:48:26 10° NNW 12:51:26 25° WNW 12:54:28 10° SW visible
28 Jan 6.6 12:22:28 10° N 12:26:03 59° WNW 12:29:39 10° SSW visible
29 Jan 9.8 00:27:14 10° SW 00:29:18 15° W 00:31:23 10° WNW visible
29 Jan 7.4 11:57:01 10° NNE 12:00:35 54° E 12:04:10 10° S visible
30 Jan 9.1 11:32:05 10° NE 11:35:02 23° E 11:38:01 10° SSE visible
31 Jan 10.2 11:08:47 10° E 11:09:25 10° E 11:10:04 10° ESE visible
31 Jan 7.3 12:39:32 10° N 12:42:51 33° WNW 12:46:10 10° SW visible
01 Feb 6.5 12:13:46 10° N 12:17:26 81° WNW 12:21:07 10° SSW visible
